Regional Weather Roundup
Issued by NWS Upton, NY

Current Version | Previous Version | Text Only | Print | Product List | Glossary On
Versions: 1 2 3 4 5 6 7 8 9 10 11 12 13 14 15 16 17 18 19 20 21 22 23 24 25 26 27 28 29 30 31 32 33 34 35 36 37 38 39 40 41 42 43 44 45 46 47 48 49 50
000
ASUS41 KOKX 250508
RWROKX

REGIONAL WEATHER ROUNDUP
NATIONAL WEATHER SERVICE NEW YORK NY
100 AM EDT SUN SEP 25 2016

NOTE: "FAIR" INDICATES FEW OR NO CLOUDS BELOW 12,000 FEET WITH NO
SIGNIFICANT WEATHER AND/OR OBSTRUCTIONS TO VISIBILITY.

NYZ071-072-176-178-NJZ106-104-250600-
NEW YORK CITY METRO AREA

CITY           SKY/WX    TMP DP  RH WIND       PRES   REMARKS
Central Park   CLEAR     60  43  53 VRB6      30.17F
LaGuardia APRT CLEAR     63  46  54 N9        30.14S
Kennedy INTL   PTCLDY    59  42  53 N5        30.15S
Newark/Liberty CLEAR     60  43  53 N9        30.15S
Bronx Bot Gard   N/A     55  45  67 N2        30.15S
Wall St Helipt CLEAR     63  46  55 CALM      30.15S
Teterboro      CLEAR     56  43  61 CALM      30.14S
$$

NYZ177-179-078>081-250600-
LONG ISLAND NEW YORK

CITY           SKY/WX    TMP DP  RH WIND       PRES   REMARKS
Farmingdale    CLEAR     58  42  55 N7        30.13F
MacArthur/ISP  CLEAR     57  43  59 N6        30.12S
Shirley        CLEAR     51  46  83 NW5       30.12F
Riverhead      NOT AVBL
Westhampton    CLEAR     42  39  89 CALM      30.13F
Southampton      N/A     52  46  82 NE1       30.08S
Bridgehampton    N/A     50  46  87 CALM      29.97S
East Hampton   FAIR      46  43  91 N3        30.10F
Montauk          N/A     61  43  51 N8        30.12F
$$

NYZ052-065-067-250600-
HUDSON VALLEY

CITY           SKY/WX    TMP DP  RH WIND       PRES   REMARKS
White Plains   CLEAR     54  40  59 N10       30.14S
Newburgh       CLEAR     48  45  87 VRB6      30.18S
Montgomery     CLEAR     45  42  89 CALM      30.17S
Poughkeepsie   CLEAR     42  40  92 CALM      30.16S
Albany         CLEAR     48  39  71 CALM      30.17S
$$

NJZ001-105-106-008-010-013-015-019>022-104-250600-
NEW JERSEY

CITY           SKY/WX    TMP DP  RH WIND       PRES   REMARKS
Newark/Liberty CLEAR     60  43  53 N9        30.15S
Teterboro      CLEAR     56  43  61 CALM      30.14S
Caldwell       CLEAR     52  47  83 CALM      30.16S
Morristown     FLURRIES  45  45 100 CALM      30.16S
Somerville     CLEAR     48  46  93 NW5       30.14F
Linden         NOT AVBL
Sussex         CLEAR     45  44  97 CALM      30.18S
Abdover          N/A     46  44  93 CALM      30.17F
Trenton        CLEAR     55  42  61 N6        30.15S
Millville      CLEAR     51  51 100 CALM      30.14F
Atlantic City  CLEAR     52  50  93 NW3       30.14S
Wrightstown    CLEAR     54  46  75 N7        30.12S
Toms River     CLEAR     48  47  96 CALM      30.14F
Belmar         CLEAR     54  51  90 W3        30.14F
$$

PAZ047>061-062-071-250600-
EASTERN PENNSYLVANIA

CITY           SKY/WX    TMP DP  RH WIND       PRES   REMARKS
Philadelphia   CLEAR     60  43  53 N5        30.15S
Allentown      CLEAR     53  41  63 N7        30.18S
Scranton       CLEAR     46  43  89 CALM      30.20R
$$

CTZ002-004>006-009-010-012-RIZ004-006-007-MAZ004-011-015-250600-
SOUTHERN NEW ENGLAND
 IN CT

CITY           SKY/WX    TMP DP  RH WIND       PRES   REMARKS
Bradley INTL   CLEAR     49  41  74 CALM      30.14S
Hartford       CLEAR     49  47  93 CALM      30.13F
Danbury        CLEAR     45  41  86 SW3       30.16F
Wtrbury/Oxford   N/A     46  39  76 CALM      30.16S
Bridgeport     NOT AVBL
Meriden        CLEAR     46  42  86 CALM      30.14S
New Haven      CLEAR     53  43  68 N7        30.13F
Chester        FAIR      52  43  71 NW7       30.13S
Groton         CLEAR     51  46  83 N5        30.11F
Wilimantic     PTCLDY    46  44  93 CALM      30.14S

 IN RI

CITY           SKY/WX    TMP DP  RH WIND       PRES   REMARKS
Providence     CLEAR     54  37  52 NW8       30.10F
Block Island   CLEAR     57  45  64 N5        30.11F
Westerly       CLEAR     47  42  83 CALM      30.12F
 IN MA

CITY           SKY/WX    TMP DP  RH WIND       PRES   REMARKS
Boston         CLEAR     55  39  54 NW14      30.09S
Worcester      CLEAR     52  35  52 NW14      30.11F
Westfield      CLEAR     42  41  96 CALM      30.13S
Provincetown   CLEAR     59  42  53 NW20G26   30.06F
Nantucket      CLEAR     60  37  42 NW18G26   30.06F
$$

ANZ330-335-338-340-345-350-353-355-250600-
COASTAL MARINE OBSERVATIONS


STATION/POSITION TIME  SKY/WX   TEMP    WIND        PRES    VSBY  WAVE
                                AIR SEA DIR/SP/G                  HT/PER
                 (UTC)          (F)     (DEG/KT/KT) (MB)    (MI)  (FT/S)
NY HARB ENTRANCE 0450            65 72   10/ 14/ 19 1019.9          4/11
20S FIRE ISLAND  0450            66 71  360/ 10/ 14 1019.4          4/10
GREAT SOUTH BAY  0430            62 72  350/  8/ 10   N/A
23 SSW MONTAUK P 0450            63 68  360/ 12/ 16 1019.5          5/11
15 E BARNEGAT LI 0430               71                N/A           5/11
HUDSON CANYON    0350            64 69              1019.8          5/11
KINGS POINT      0436            62 74              1020.4
EXECUTION ROCKS  0430            62     340/  8/ 12   N/A
CENTRAL LI SOUND 0430            62 73  330/ 10/ 14   N/A           1/ 3
EASTERN LI SOUND NOT AVBL
ROBBINS REEF     0442            62     360/ 11/ 15 1020.9
$$


>>>>>>>>>>>>>>>>>>>>>>>>>>>> KEY <<<<<<<<<<<<<<<<<<<<<<<<<<<
>                                                          <
>     SKY/WX - Sky Condition/Present Weather               <
>     TMP    - Temperature in Fahrenheit                   <
>     DP     - Dew Point in Fahrenheit                     <
>     RH     - Relative Humidity in Percent                <
>     WIND   - Direction (from) and Speed in MPH           <
>     PRES   - Mean Sea Level Pressure (inches of Hg)      <
>     WCI    - Wind Chill Index                            <
>     VSB    - VISIBILITY IN MILES                         <
>     HX     - HEAT INDEX                                  <
>     TC     - TEMPERATURE IN CELSIUS                      <
>     VRB    - VARIABLE WIND DIRECTION                     <
>                                                          <
>>>>>>>>>>>>>>>>>>>>>>>>>>>> KEY <<<<<<<<<<<<<<<<<<<<<<<<<<<




USA.gov is the U.S. government's official web portal to all federal, state and local government web resources and services.